Погода Ростов Великий

Хотите узнать прогноз погоды Ростов Великий? Тогда Вам сюда: Погода Ростов Великий

Поиск расширенной информации на нашем сайте:

Полезная информация:

Новости сайта



02.01.2020
Опубликован Долгосрочный прогноз погоды по городам России и ближнего зарубежья на январь 2020 года.
Карты: Прогноз на январь и февраль 2020 года, Сравнение прогнозируемой аномалии приземной температуры воздуха на январь 2020 года по разным моделям.




Погода Ростов Великий - сегодня

Время (UTC), дата Ветер
(°,м/с) 
Видим.   Явления Облачность Т
(°С)
Тd
(°С)
f(%) Тe
(°С)
Pmin
(гПа)
dP
(гПа)
Po
(мм)
O2
(г/м3)
Тmin Tmax R s Состояние
почвы
09 19.09.20 320 (СЗ) 10 км    8/8 600 м кучево-дожд. 
[Cb cap]
+11.2 +6.7 74 +10  1007.8  747  288           
12 19.09.20 300 (СЗ) 5{10}  10 км    4/4 600 м 
[Sc]
+14 +5.1 55 +13  1007.8  0.1  747  285           
15 19.09.20 310 (СЗ) 2000 м  ливневой дождь  8/8 600 м кучево-дожд. 
[Cb cap]
+10.4 +6.7 78 +10  1008.2  0.3  747  289    +14.3  0.5     
18 19.09.20 290 (З) 10 км  {ливн. осадки}  3/3 600 м 
[Sc]
+7.4 +5.2 86 +7  1009  0.6  748  292           
21 19.09.20 310 (СЗ) 10 км    1/1 600 м 
[Sc]
+7 +4.5 84 +6  1009.2  -0.1  748  293           
00 20.09.20 320 (СЗ) 10 км    3/3 600 м 
[Sc]
+5.3 +3.9 91 +4  1009.6  0.4  748  295           
03 20.09.20 310 (СЗ) 10 км    1/1 600 м 
[Sc]
+4.6 +3.6 93 +3  1010.7  1.1  749  296  +4.6    0.0    влажная 
06 20.09.20 320 (СЗ) 10 км    3/3 600 м 
[Cu Sc]
+7.4 +4.4 81 +6  1012.2  1.6  750  294  +4.4         
09 20.09.20 320 (СЗ) 5-11{12}  10 км    8/8 600 м 
[Sc]
+10.6 +2.8 58 +9  1012.9  0.8  751  291           
12 20.09.20 320 (СЗ) 4-10{12}  10 км    8/8 600 м 
[Sc]
+11.6 +2.4 53 +11  1014.9  752  290           
15 20.09.20 310 (СЗ) 10 км    8/3 600 м верхняя 
[Sc|Ci fib]
+9.4 +3.4 66 +9  1015.4  0.4  752  293    +11.6       
18 20.09.20 300 (СЗ) 10 км    10/0 верхняя 
[Ci fib]
+7.3 +3.6 77 +7  1015.7  0.2  752  295           
21 20.09.20 290 (З) 10 км    10/0 верхняя 
[Cs]
+6.4 +3.8 83 +5  1015  -0.7  752  295           
00 21.09.20 280 (З) 10 км    10/10 600 м 
[Sc]
-1               
03 21.09.20 270 (З) 10 км    10/5 600 м средняя 
[Sc|As op]
+6.6 +4.5 86 +6  1013  -0.6  751  295  +6        влажная 
06 21.09.20 270 (З) 10 км    10/6 600 м верхняя 
[Sc|Cs]
+9.8 +5.9 77 +9  1011.6  -1.3  750  291           
09 21.09.20 300 (СЗ) 10 км    10/6 600 м верхняя 
[Sc|Cs]
+11 +7.3 78 +10  1011.3  -0.3  749  289           
12 21.09.20 300 (СЗ) 10 км    10/10 600 м кучево-дожд. 
[Cb cap]
+12.1 +8 76 +11  1010.9  -0.3  749  288           
15 21.09.20 300 (СЗ) 10 км    10/10 600 м кучево-дожд. 
[Cb cap]
+11.4 +6.8 73 +11  1010  -1  748  288    +12.1       
18 21.09.20 270 (З) 10 км  {ливн. осадки}  10/10 600 м кучево-дожд. 
[Cb cap]
+9.8 +7.3 84 +10  1011.6  1.6  750  290           
21 21.09.20 270 (З) 10 км    8/8 600 м 
[Sc]
+8 +6 87 +8  1012.3  0.7  750  293           
00 22.09.20 240 (ЮЗ) 10 км    6/6 600 м 
[Sc]
+7.3 +5.3 87 +8  1012.9  0.5  750  294           
03 22.09.20 250 (З) 10 км    8/8 600 м 
[Sc]
+9.2 +7.6 90 +9  1011.2  -1.6  749  291      0.0    влажная 
06 22.09.20 260 (З) 10 км    10/3 600 м средняя, верхняя 
[Sc|Ac trans|Ci fib]
+12.8 +10.5 86 +15  1009.9  -1.2  748  286           
09 22.09.20 270 (З) 4-10{10}  10 км    9/1 600 м средняя, верхняя 
[Sc|Ac trans|Ci fib]
+15.7 +10.4 71 +18  1007.7  -1.9  747  283           
Время (UTC), дата Ветер
(°,м/с) 
Видим.   Явления Облачность Т
(°С)
Тd
(°С)
f(%) Тe
(°С)
Pmin
(гПа)
dP
(гПа)
Po
(мм)
O2
(г/м3)
Тmin Tmax R s Состояние
почвы

Для получения пояснительной информации подведите курсор к названию столбца.

ПОГОДА Ростов Великий - архив

Всё, что Вы хотите узнать о погоде Ростов Великий - удобно и подробно!

Выберите нужную дату (начиная с 1 января 2019* года) и нажмите кнопку "Найти".
Будут отображены архивные сводки погоды по пункту Ростов Великий, начиная с указанной даты.


Отображать данные в формате CSV (для использования в таблицах Excel)


Внимание! Наш архив погоды предназначен исключительно для личного некоммерческого использования в познавательных целях. Если Вам необходимы официальные справки о состоянии погоды (для производственных, юридических, коммерческих и т.п. целей), обращайтесь в органы Росгидромета.

*Примечание: данная дата относится к архиву по метеостанциям СССР (Россия, СНГ, Балтия).
Архив по метеостанциям Зарубежной Европы и Азии (кроме Китая) хранится 10 дней, по другим регионам земного шара (Китай, Африка, Америка, Австралия, Океания) - 1 день.

Ростов Великий - район местоположения метеостанции


Название, широта, долгота, высота метеостанции:
Ростов Великий 57.2°ш. 39.4°д. 101 м над ур. моря [Российская Федерация]

Дополнительная информация

В oтличие oт бoльшинства пoгoдных сайтoв мы публикуем пoдрoбную метеoинфoрмацию в детальнoм прoфессиoнальнoм фoрмате.

Характеристики температуры и влажнoсти вoздуха измеряются на высoте 2 м в тени вдали oт зданий и деревьев.
Скoрoсть ветра измеряется на высoте 10 м (на урoвне рoста челoвека скoрoсть ветра ниже в 1.5-2 раза). Если метеoстанция нахoдится в гoрoде или в лесу, тo скoрoсть ветра занижена на 2-4 м/с пo сравнению с oткрытым местoм. Скoрoсть ветра над акватoриями крупных рек и oзёр, а также на вершинах хoлмoв на 2-5 м/с выше, чем в oбычных услoвиях.
Атмoсфернoе давление в разных тoчках местнoсти мoжет значительнo oтличаться oт давления на метеoстанции, в зависимoсти oт услoвий рельефа (при пoдъёме на 10 м давление пoнижается примернo на 1 мм рт.ст.).